{"data":{"norad_id":81652,"intl_designator":"","name":"UNKNOWN","alt_names":[],"object_type":"UNKNOWN","status":"UNKNOWN","operator":null,"country":null,"launch_date":null,"launch_site_code":null,"launch_vehicle":null,"mission":null,"orbit_class":"UNKNOWN","rcs_meters":null,"size_class":null,"mass_kg":null,"dimensions":null,"purposes":[],"wikipedia_slug":null,"has_3d_model":false,"image_url":null,"decayed_at":null,"tle_current":{"epoch":"2026-09-13T19:59:21.967296Z","epoch_age_seconds":590557,"freshness":"STALE","line1":"1 81652U          26256.83289314  .00000749  00000+0  92682-3 0  9990","line2":"2 81652 102.1449 207.3901 0363510 103.7909 289.6506 13.44700019615629","mean_motion":13.44700019,"eccentricity":0.036351,"inclination_deg":102.1449,"raan_deg":207.3901,"arg_perigee_deg":103.7909,"mean_anomaly_deg":289.6506,"bstar":0.00092682,"rev_number":61562,"period_min":107.08708110757,"perigee_km":820.28178311083,"apogee_km":1363.3627621496,"semimajor_km":7469.9592726302,"source":"CELESTRAK","updated_at":"2026-09-20T09:00:32.393233Z"}}}